Lid_Strength_Index
-1 -1 -1 2 9 8 12 11 7 8 7 5 4 6 6 6 8 10 1 -0 -0 -0 -1 -1 -2 -2 -1 -2 -2 -2 -2 -2 -1 -1 -1 -1 -1 -1 -1 -1 -1 -1 -1 -1 -1 -2 -2 -2 -2
-1 0 1 4 9 13 12 8 9 7 5 4 5 5 6 8 4 3 2 -0 -1 -1 -1 -1 -1 -2 -2 -1 -2 -2 -2 -2 -2 -1 -1 -1 -1 -1 -1 -1 -1 -2 -1 -1 -1 -1 -2 -2 -2
-0 0 4 6 9 13 13 8 7 6 5 5 6 4 5 7 3 2 0 -0 -1 -1 -1 -1 -1 -2 -2 -2 -2 -2 -2 -2 -1 -1 -1 -1 -1 -1 -1 -1 -1 -1 -1 -1 -1 -1 -1 -2 -1
1 2 4 9 11 10 9 7 6 6 5 4 5 7 4 2 2 1 -0 -1 -0 -1 -1 -1 -2 -2 -2 -2 -2 -2 -2 -1 -1 -1 -1 -1 -1 -1 -1 -1 -1 -1 -1 -1 -1 -1 -1 -1 -1
1 3 8 10 10 9 7 6 6 7 6 6 5 7 6 3 1 0 -0 -0 -0 -1 -1 -1 -2 -2 -2 -2 -2 -2 -2 -1 -1 -1 -1 -1 -1 -1 -1 -1 -1 -1 -1 -1 -1 -1 -1 -1 -1
5 4 9 11 10 8 7 6 6 6 6 5 6 6 6 2 1 0 -0 -0 -1 -0 -1 -1 -2 -2 -2 -2 -2 -2 -1 -1 -1 -1 -1 -1 -1 -1 -1 -1 -1 -1 -1 -1 -1 -1 -1 -1 -1
6 6 9 9 10 9 8 5 6 6 6 6 4 7 5 3 1 0 -0 -1 -1 -1 -1 -1 -1 -2 -2 -2 -2 -2 -1 -1 -1 -1 -1 -1 -1 -1 -1 -1 -1 -1 -1 -1 -1 -1 -1 -1 -1
3 5 9 8 10 10 6 6 5 6 6 3 3 7 7 3 1 0 -0 -0 -0 -1 -1 -1 -1 -1 -2 -2 -2 -2 -1 -1 -1 -1 -1 -1 -1 -1 -1 -1 -1 -1 -1 -1 -1 -1 -1 -1 -1
3 7 9 9 9 8 6 7 5 4 5 4 4 4 3 1 1 1 1 1 0 -0 -0 -1 -1 -1 -2 -2 -2 -2 -1 -1 -1 -1 -1 -2 -2 -2 -2 -2 -1 -1 -1 -1 -1 -1 -1 -1 -1
5 7 8 6 6 7 6 6 6 6 6 6 5 3 2 2 2 2 2 2 1 1 -0 -1 -1 -1 -1 -1 -2 -2 -2 -2 -1 -2 -3 -2 -1 -2 -2 -2 -1 -1 -1 -1 -1 -1 -1 -1 -2
5 7 6 6 5 5 6 6 5 6 7 5 6 5 3 2 2 2 2 2 1 0 0 -1 -1 -1 -1 -2 -1 -2 -3 -1 -2 -2 -2 -2 -1 -2 -2 -2 -2 -2 -2 -2 -2 -2 -2 -2 -2
7 6 5 5 5 5 6 5 6 6 6 4 3 3 3 3 3 2 2 1 1 1 0 -1 -1 -1 -1 -1 -2 -1 -1 -1 -1 -1 -2 -2 -1 -1 -1 -1 -2 -2 -2 -2 -2 -1 -2 -2 -2
6 6 5 5 5 5 5 6 6 6 4 3 3 3 3 3 2 2 1 1 1 1 0 -0 -1 -1 -1 -1 -1 -1 -1 -1 -1 -1 -1 -1 -1 -1 -1 -1 -1 -2 -2 -1 -2 -2 -1 -1 -1
5 5 6 5 5 5 6 6 5 5 3 4 4 4 3 3 2 2 2 1 1 1 0 -0 -1 -1 -1 -1 -1 -1 -2 -2 -1 -2 -2 -2 -1 -1 -1 -1 -1 -1 -1 -1 -1 -1 -1 -1 -1
5 7 6 6 6 6 5 8 7 5 4 5 4 4 3 3 2 2 1 1 1 1 0 -0 -0 -1 -1 -1 -1 -1 -2 -2 -2 -2 -2 -2 -2 -2 -2 -1 -1 -1 -2 -2 -1 -1 -2 -1 -1
7 7 9 7 6 6 6 10 6 4 5 5 4 4 4 3 2 2 1 1 1 0 0 -0 -0 -1 -1 -1 -1 -1 -2 -3 -2 -2 -2 -2 -2 -2 -2 -1 -1 -1 -1 -1 -1 -0 -1 -0 -0
7 9 9 9 6 7 7 9 6 4 5 5 5 4 4 3 3 2 1 1 1 0 0 0 -0 -0 -1 -1 -2 -1 -2 -1 -3 -3 -2 -2 -2 -2 -1 -1 -1 -2 -3 -1 -0 0 -0 0 -0
9 9 8 9 7 7 8 8 6 5 5 5 5 4 4 4 3 2 1 1 0 0 0 -0 -0 -0 -1 -1 -1 -1 -1 -1 -2 -2 -1 -2 -1 -2 -1 -1 -1 -1 -0 -0 -1 -0 -0 -0 0
7 8 8 7 6 8 8 8 7 6 5 5 5 4 4 4 2 2 1 1 1 0 0 0 0 -0 -0 0 1 0 1 -0 -0 -1 -2 -2 -2 -2 -2 -1 -1 -2 -1 -0 -1 -1 -0 0 -1
7 8 8 7 6 7 7 8 6 6 6 5 5 4 4 3 3 2 2 1 1 1 1 0 0 -0 0 0 0 0 -1 -0 -0 -1 -1 -1 -1 -2 -1 -1 -1 -1 -0 -0 -1 -0 1 0 0
7 8 8 8 7 7 8 8 7 6 5 5 4 4 3 3 3 3 2 2 1 1 1 1 0 0 -0 -0 -0 -0 -0 -0 -0 -0 0 -1 -1 -1 -2 -2 -1 -1 -0 0 -0 -0 0 1 0
9 6 7 7 8 10 7 11 8 7 7 6 5 5 4 3 3 2 2 2 2 1 0 0 0 0 -0 -0 0 0 2 2 1 0 -0 -0 -1 -1 -1 -1 -1 -1 -0 0 0 -1 -0 0 2
7 6 6 7 8 8 9 10 8 7 7 7 6 5 4 3 3 3 2 2 1 1 1 0 0 0 -0 -0 -0 1 1 1 0 0 -0 -1 -1 -1 -1 -1 -1 -0 -0 -1 -0 -0 0 -1 0
6 7 6 7 7 11 8 9 8 7 7 7 5 5 4 4 3 2 2 1 1 1 1 1 1 1 0 -0 0 0 1 1 1 1 1 0 0 -1 -1 -1 -1 -1 -1 -1 -1 -1 -1 -0 -0
6 7 11 12 11 12 8 9 8 6 6 6 6 5 4 3 3 3 2 2 2 1 1 1 1 1 0 0 0 0 0 0 1 1 1 -0 -0 0 -0 -1 -1 -0 -1 -1 -1 -1 -0 -0 -0
7 7 10 15 13 12 8 10 8 6 5 5 5 5 4 4 3 3 2 2 2 2 1 2 1 1 0 0 0 -0 -0 0 1 0 0 0 -0 -1 -1 -1 -1 -1 -1 -1 -1 -0 -0 -1 0
7 9 6 9 8 10 9 8 5 6 6 6 6 5 5 4 4 3 3 2 2 2 2 2 1 1 1 1 0 0 0 0 0 -0 -0 0 -0 -0 -0 -1 -1 -1 -1 -1 -1 -0 -0 -0 -0
6 5 9 9 14 15 11 10 9 8 8 7 6 6 5 4 4 3 3 2 2 2 1 1 1 1 1 1 0 1 0 0 -0 -0 0 0 -0 -0 -0 -0 -0 -0 -1 -1 -1 -0 -0 -0 -0
7 7 7 7 8 11 12 10 5 7 7 7 6 5 5 4 4 3 3 2 2 1 1 1 1 1 1 1 1 1 1 0 -0 0 -0 -0 -0 -0 0 -0 -0 -0 -0 -1 -0 -1 -0 -0 -0
6 7 7 9 10 9 9 9 6 6 6 6 6 5 5 4 4 3 3 2 2 2 2 1 1 1 1 0 0 0 0 0 1 0 0 -0 -0 -0 -0 0 0 0 0 -0 -0 -0 -0 -0 0